Location: USNO
(38.9242°N, 77.0663°W)
Time: 13:09:15
(UTC-05:00)

Vanguard 1 Rocket - All Passes

Search period start: 12 December 2017 00:00
Search period end: 22 December 2017 00:00
Orbit: 656 x 4222 km, 34.3° (Epoch: 11 December)

Date Brightness Start Highest point End Pass type
(mag) Time Alt. Az. Time Alt. Az. Time Alt. Az.
12 Dec - 00:44:39 10° W 01:04:33 34° SW 01:24:46 10° SSE visible
12 Dec - 16:13:19 10° SSW 16:21:27 42° SE 16:36:25 10° E daylight
12 Dec - 18:36:33 10° WSW 18:48:28 74° S 19:11:13 10° E visible
12 Dec - 21:02:15 10° W 21:19:06 71° SSW 21:45:07 10° ESE visible
12 Dec - 23:30:27 10° W 23:50:36 46° SW 00:13:50 10° SSE visible
13 Dec - 02:06:45 10° W 02:19:49 17° SW 02:32:31 10° SSW visible
13 Dec - 15:04:37 10° S 15:10:47 25° SE 15:20:29 10° E daylight
13 Dec - 17:26:06 10° WSW 17:35:51 64° SSE 17:55:07 10° E visible
13 Dec - 19:50:47 10° W 20:04:56 75° S 20:29:51 10° ESE visible
13 Dec - 22:17:32 10° W 22:36:14 57° SSW 23:01:19 10° SE visible
14 Dec - 00:48:39 10° W 01:06:38 28° SW 01:25:23 10° S visible
14 Dec - 13:59:21 10° SE 14:00:41 10° SE 14:02:07 10° ESE daylight
14 Dec - 16:16:12 10° SW 16:24:09 49° SSE 16:39:19 10° E daylight
14 Dec - 18:39:49 10° WSW 18:51:27 75° S 19:13:55 10° E visible
14 Dec - 21:05:30 10° W 21:21:52 66° SSW 21:47:26 10° ESE visible
14 Dec - 23:33:57 10° W 23:52:53 39° SW 00:15:08 10° SSE visible
15 Dec - 02:15:47 10° WSW 02:21:55 11° SW 02:28:01 10° SW visible
15 Dec - 15:07:02 10° SSW 15:13:19 31° SE 15:23:51 10° E daylight
15 Dec - 17:29:18 10° WSW 17:38:48 68° SSE 17:57:52 10° E visible
15 Dec - 19:54:04 10° W 20:07:52 72° S 20:32:22 10° ESE visible
15 Dec - 22:20:52 10° W 22:38:46 50° SSW 23:03:04 10° SE visible
16 Dec - 00:53:23 10° W 01:08:47 22° SW 01:25:09 10° S visible
16 Dec - 13:59:25 10° SSE 14:03:07 15° SE 14:07:56 10° E daylight
16 Dec - 16:19:14 10° SW 16:27:00 55° SSE 16:42:10 10° E daylight
16 Dec - 18:43:08 10° W 18:54:29 74° S 19:16:34 10° ESE visible
16 Dec - 21:08:48 10° W 21:24:37 60° SSW 21:49:30 10° SE visible
16 Dec - 23:37:46 10° W 23:55:12 32° SW 00:15:57 10° SSE visible
17 Dec - 15:09:45 10° SSW 15:16:01 37° SE 15:27:00 10° E daylight
17 Dec - 17:32:35 10° WSW 17:41:51 71° S 18:00:36 10° E visible
17 Dec - 19:57:24 10° W 20:10:47 67° SSW 20:34:44 10° ESE visible
17 Dec - 22:24:21 10° W 22:41:17 43° SSW 23:04:27 10° SSE visible
18 Dec - 00:59:29 10° WSW 01:11:04 16° SW 01:23:23 10° SSW visible
18 Dec - 14:01:15 10° S 14:05:41 20° SE 14:12:01 10° E daylight
18 Dec - 16:22:25 10° WSW 16:29:59 61° SSE 16:45:01 10° E daylight
18 Dec - 18:46:27 10° W 18:57:32 72° S 19:19:09 10° ESE visible
18 Dec - 21:12:10 10° W 21:27:21 53° SSW 21:51:19 10° SE visible
18 Dec - 23:42:03 10° W 23:57:35 26° SW 00:16:05 10° S visible
19 Dec - 15:12:41 10° SW 15:18:52 44° SSE 15:30:03 10° E daylight
19 Dec - 17:35:54 10° W 17:44:58 72° S 18:03:19 10° E visible
19 Dec - 20:00:44 10° W 20:13:43 61° SSW 20:36:54 10° SE visible
19 Dec - 22:28:04 10° W 22:43:51 36° SW 23:05:23 10° SSE visible
20 Dec - 01:12:21 10° SW 01:13:30 10° SW 01:14:41 10° SW visible
20 Dec - 14:03:38 10° SSW 14:08:23 26° SE 14:15:36 10° E daylight
20 Dec - 16:25:40 10° WSW 16:33:04 65° SSE 16:47:50 10° E daylight
20 Dec - 18:49:49 10° W 19:00:36 68° S 19:21:37 10° ESE visible
20 Dec - 21:15:38 10° W 21:30:07 45° SSW 21:52:48 10° SE visible
20 Dec - 23:47:12 10° W 00:00:04 19° SW 00:15:11 10° S visible
21 Dec - 12:56:43 10° SSE 12:58:17 11° SE 13:00:02 10° ESE daylight
21 Dec - 15:15:47 10° SW 15:21:50 51° SSE 15:33:03 10° E daylight
21 Dec - 17:39:15 10° W 17:48:06 71° S 18:06:00 10° ESE visible
21 Dec - 20:04:08 10° W 20:16:38 55° SSW 20:38:50 10° SE visible
21 Dec - 22:32:08 10° W 22:46:28 29° SW 23:05:46 10° SSE visible
